www.pogodaiklimat.ru

Погода и климат >> Архив погоды >> Индия >> Chandrapur


ПОГОДА в Chandrapur

  • Прогноз погоды в Chandrapur
  • Монитор погоды в Chandrapur
  • Климат города

АРХИВ ПОГОДЫ в Chandrapur

Время (UTC), дата Ветер
(напр.,м/с)
 
Видим.   Явления Облачность Т
(С)
Тd
(С)
f
(%)
Тe
(С)
Тes
(С)
Комфортность P
(гПа)
Po
(гПа)
Тmin
(С)
Tmax
(С)
R
(мм)
R24
(мм)
S
(см)
03 16.10 ЮВ 2 4000 м 1/1 600 м
[Cu med, cong]
+27.0 +20.3 67 +33 +38 очень
душно
1015.3 1015.0 +21.4
06 16.10 С 1 4000 м 4/4 600 м
[Cu med, cong]
+30.2 +21.6 60 +38 +49 очень
душно
1014.8 1015.0
09 16.10 ЮЗ 1 4000 м ясно +33.8 +25.7 63 +49 +62 опасность
перегрева
1011.0 1011.0
12 16.10 Ю 2 4000 м 3/0
[]
+34.2 +23.9 55 +46 +46 опасность
перегрева
1010.8 1011.0 +35.5
03 17.10 ЮВ 1 4000 м 3/0
[]
+23.6 +20.5 83 +29 +34 душно 1015.7 1016.0 +21.8
06 17.10 Ю 1 4000 м 3/0
[]
+30.2 +20.9 58 +38 +53 опасность
солнечного
удара
1015.2 1015.0
12 17.10 Ю 2 4000 м 1/0
[]
+33.0 +24.5 61 +46 +46 опасность
перегрева
1009.6 1010.0 +35.2
03 18.10 ЮВ 2 4000 м 1/0
[]
+27.2 +23.1 78 +36 +41 очень
душно
1014.4 1014.0 +22.0
06 18.10 В 1 4000 м 3/0
[]
+30.2 +22.6 64 +40 +55 опасность
солнечного
удара
1013.9 1014.0
09 18.10 ЮВ 1 4000 м 3/0
[]
+33.4 +24.6 60 +46 +57 опасность
перегрева
1009.6 1010.0
12 18.10 ЮВ 2 4000 м 3/0
[]
+33.2 +24.4 60 +46 +46 опасность
перегрева
1009.8 1010.0 +35.0
03 19.10 В 2 4000 м 1/0
[]
+26.0 +23.1 84 +35 +39 очень
душно
1015.5 1016.0 +22.6
06 19.10 ЮВ 1 4000 м 1/0
[]
+29.8 +21.8 62 +38 +55 опасность
солнечного
удара
1015.0 1015.0
09 19.10 СВ 1 4000 м 3/0
[]
+34.0 +25.6 62 +49 +59 опасность
перегрева
1010.7 1011.0
12 19.10 С 2 4000 м 1/0
[]
+33.4 +25.9 65 +49 +49 опасность
перегрева
1010.5 1011.0 +35.6
03 20.10 В 2 4000 м 3/0
[]
+27.0 +21.9 74 +35 +39 очень
душно
1015.3 1015.0 +22.6
06 20.10 ЮВ 1 4000 м 4/0
[]
+30.2 +20.9 58 +38 +52 опасность
солнечного
удара
1015.0 1015.0
09 20.10 СВ 1 4000 м ясно +34.6 +21.0 45 +42 +54 опасность
перегрева
1011.7 1012.0
12 20.10 В 2 4000 м 3/0
[]
+34.0 +21.0 47 +41 +42 опасность
перегрева
1010.9 1011.0 +35.8
03 21.10 ЮЗ 2 4000 м ясно +28.4 +22.8 72 +38 +43 очень
душно
1015.4 1015.0 +23.2
06 21.10 ЮЗ 1 4000 м ясно +30.4 +20.8 57 +38 +55 опасность
солнечного
удара
1015.2 1015.0
09 21.10 СЗ 1 4000 м ясно +34.8 +20.2 43 +41 +53 опасность
перегрева
1012.0 1012.0
12 21.10 ЮЗ 2 4000 м ясно +11.0 +20.8 100 +36.0
15 21.10 ЮЗ 2 4000 м ясно +11.0 +20.8 100 +36.0
03 22.10 ЮЗ 2 4000 м ясно +28.8 +22.0 67 +37 +42 очень
душно
1015.6 1016.0 +23.4
09 22.10 С 2 4000 м ясно +30.2 +21.3 59 +38 +49 очень
душно
1011.1 1011.0
12 22.10 В 2 4000 м ясно +32.6 +21.7 53 +41 +41 опасность
перегрева
1009.9 1010.0 +35.6

 

Местоположение метеостанции Chandrapur (Maharashtra, Индия): широта 19.97 долгота 79.30 высота над уровнем моря 193 м.

В архиве по умолчанию представлена погода в Chandrapur за последнюю неделю. Архивные данные за месяц целиком и за предыдущие месяцы, начиная с января 2011 года, Вы можете получить, выбрав интересующий диапазон дат из раскрывающегося списка и нажав кнопку "Ввод!".


*Определитесь, кто Вы:
робот инопланетянин человек

Внимание! Время в таблицах - всемирное. Для получения местного времени необходимо прибавить поправку, которая в Chandrapur равна 5.5 ч.

Смотрите также архив погоды в соседних городах и на ближайших метеорологических станциях:

Погода в Adilabad (Telangana, Индия) (88 км)
Погода в Bramhapuri (Maharashtra, Индия) (91 км)
Погода в Wardha (Maharashtra, Индия) (108 км)
Погода в Nagpur (Maharashtra, Индия) (128 км)
Погода в Yeotmal (Maharashtra, Индия) (129 км)
Погода в Ramgundam (Telangana, Индия) (134 км)
Погода в Amravati (Maharashtra, Индия) (191 км)
Погода в Gondia (Maharashtra, Индия) (191 км)
Погода в Nizamabad (Telangana, Индия) (192 км)
Погода в Hanamkonda (Telangana, Индия) (219 км)

Пояснения к столбцам:

Ветер - указаны скорость ветра в м/с - средняя за 10 мин, порывы в срок и между сроками (в фигурных скобках) и направление, откуда дует ветер: С - северный, СВ - северо-восточный, В - восточный, ЮВ - юго-восточный, Ю - южный, ЮЗ - юго-западный, З - западный, СЗ - северо-западный.
Видимость - горизонтальная дальность видимости в метрах или километрах. При видимости от 1 до 10 км при отсутствии осадков обычно наблюдается дымка, при ухудшении видимости до 1 км и менее - туман. В сухую погоду видимость может ухудшаться дымом, пылью или мглою.
Явления - указаны атмосферные явления, наблюдавшиеся в срок или в последний час перед сроком; фигурными скобками обозначены явления, наблюдавшиеся между сроками (за 1-3 часа до срока); квадратными скобками обозначены град или гололедные отложения с указанием их диаметра в мм.
Облачность - указаны через наклонную черту общая и нижняя облачность в баллах и высота нижней границы облаков в метрах; квадратными скобками обозначены формы облаков: Ci - перистые, Cs - перисто-слоистые, Cc - перисто-кучевые, Ac - высококучевые, As - высокослоистые, Sc - слоисто-кучевые, Ns - слоисто-дождевые, Cu - кучевые, Cb - кучево-дождевые. Подробнее классификацию облаков см. в Атласе облаков (PDF).
T - Температура воздуха - температура, измеренная на высоте 2 м над землей.
Td - Температура точки росы - температура, при понижении до которой содержащийся в воздухе водяной пар достигнет насыщения.
f - Относительная влажность воздуха - влажноcть воздуха, измеренная на высоте 2 м над землей.
Te - Эффективная температура - температура, которую ощущает одетый по сезону человек в тени. Характеристика душности погоды. При расчете учитывается влияние влажности воздуха и скорости ветра на теплоощущения человека.
Tes - Эффективная температура на солнце - температура, которую ощущает человек, с поправкой на солнечный нагрев. Характеристика знойности погоды. Зависит от высоты солнца над горизонтом, облачности и скорости ветра. Ночью, в пасмурную погоду, а также при ветре 12 м/с и более поправка равна нулю.
P - Атмосферное давление - приведенное к уровню моря атмосферное давление.
Po - Атмосферное давление - измеренное на уровне метеостанции атмосферное давление.
Tmin - Минимальная температура - минимум температуры воздуха на высоте 2 м над землей.
Tmax - Максимальная температура - максимум температуры воздуха на высоте 2 м над землей.
R - Количество осадков - Количество выпавших осадков за период времени, мм. При наведении курсора мыши на число - период времени, за который выпало указанное количество осадков.
R24 - Количество осадков - Количество выпавших осадков за 24 часа, мм.
S - Снежный покров - Высота снежного покрова, см. При наведении курсора мыши на число - состояние снежного покрова и степень покрытия местности в баллах.